Flag for Brazil Weather past 2 weeks in Belo Horizonte, Minas Gerais, Brazil

Now
84 °F

Scattered clouds.


Feels Like: 83 °F
Forecast: N/A
Wind: 9 mph from Southeast

Location: Belo Horizonte Airport

Current Time: Aug 29, 2014 at 6:09:47 PM

Latest Report: Aug 29, 2014 at 4:00 PM


Visibility: N/A

Pressure: 30.04 "Hg

Humidity: 37%

Dew point: 55 °F

Location of Belo HorizonteLocation

Historic Weather in Belo Horizonte — Graph

°F

Belo Horizonte temperature yesterday

Maximum temperature yesterday: 88 °F (at 1:00 PM)
Minimum temperature yesterday: 64 °F (at 6:00 AM)
Average temperature yesterday: 75 °F

Past Weeks' High & Low Weather Summary

 TemperatureHumidityPressure
High90 °F (Aug 27, 2:00 PM)94% (Aug 18, 2:00 AM)30.39 "Hg (Aug 18, 2:00 AM)
Low54 °F (Aug 15, 5:00 AM)13% (Aug 23, 5:00 PM)29.98 "Hg (Aug 27, 3:00 PM)
Average70 °F53%30.18 "Hg
* Reported Aug 14 3:00 PM — Aug 29 3:00 PM, Belo Horizonte, Weather by CustomWeather, © 2014

Note: Actual official high and low records may vary slightly from our data, if they occured in-between our weather recording intervals... More about our weather records

Advertising

Belo Horizonte weather history for previous 24 hours

 ConditionsComfort  
Time TempWeatherWind HumidityBarometerVisibility
3:00 PM
Aug 29
84 °FPassing clouds.8 mph33%30.07 "HgN/A
2:00 PM84 °FSunny.3 mph35%30.09 "Hg10 mi
1:00 PM81 °FSunny.7 mph42%30.12 "Hg10 mi
12:00 PM81 °FSunny.7 mph45%30.15 "Hg10 mi
11:00 AM77 °FSunny.8 mph51%30.18 "Hg10 mi
10:00 AM73 °FSunny.6 mph57%30.18 "Hg10 mi
9:00 AM72 °FSunny.7 mph61%30.18 "Hg10 mi
8:00 AM68 °FSunny.9 mph73%30.15 "Hg10 mi
7:00 AM64 °FSunny.7 mph83%30.15 "Hg10 mi
6:00 AM63 °FClear.7 mph83%30.12 "Hg10 mi
5:00 AM64 °FClear.9 mph78%30.09 "Hg10 mi
4:00 AM64 °FClear.6 mph78%30.09 "Hg10 mi
3:00 AM66 °FClear.5 mph73%30.12 "Hg10 mi
2:00 AM68 °FPassing clouds.6 mph69%30.12 "HgN/A
1:00 AM68 °FPassing clouds.13 mph69%30.09 "HgN/A
12:00 AM70 °FPassing clouds.14 mph64%30.12 "HgN/A
11:00 PM
Aug 28
70 °FPassing clouds.13 mph64%30.12 "HgN/A
10:00 PM70 °FClear.9 mph64%30.09 "Hg10 mi
9:00 PM73 °FClear.15 mph53%30.09 "Hg10 mi
8:00 PM75 °FClear.8 mph39%30.07 "Hg10 mi
7:00 PM81 °FClear.3 mph30%30.04 "Hg10 mi
6:00 PM82 °FClear.6 mph28%30.01 "Hg10 mi
Weather by CustomWeather, © 2014

See weather overviewHow to use our weather pages